sat.trackr.live / text

‹ back to catalog

PRAETORIAN SDA_615

NORAD 65578 · 2025-203P

PAYLOAD ACTIVE UNKNOWN

§ Identity

Operator
Country
US
Launch date
2025-09-10
Launch site
AFWTR
Launch vehicle
Mass (kg)
RCS (m²)

Purposes: military

External: N2YO · Heavens-Above · Gunter

§ Orbital elements

Epoch: 2026-09-20T01:09:34.821216Z

Period
104.01 min
Inclination
81.2987°
Eccentricity
0.0007994
Mean motion
13.84442998 rev/d
Perigee alt
942.3 km
Apogee alt
954.0 km
Semi-major
7,326.3 km
B*
1.2176e-4
RAAN
282.6689°
Arg perigee
296.5307°
Mean anomaly
63.5030°
Rev number
5,183

§ Raw data

PRAETORIAN SDA_6151 65578U 25203P   26263.04831969  .00000148  00000+0  12176-3 0  99942 65578  81.2987 282.6689 0007994 296.5307  63.5030 13.84442998 51836

JSON: /api/v1/satellites/65578 · /tle

For live sub-satellite position, see the globe view (requires WebGL).

§ Visibility from observer

Set your observer location to see the next 7 days of passes ≥ 10°. The values pass through the URL so the page stays shareable.

No JS? Fill the form by hand. The geolocation button needs JavaScript.